When you browse on this site, cookies collect data to enhance your experience and personalize the content and advertising you see.
Visit our Privacy Policy to learn more. By continuing to use the site, you agree to this use of cookies and data.
  • în România
  • Lista ţărilor
  • Pe 7 zile
  • Temperatura apei
  • Hartă satelitară
  • Meteo pe hartă
  • Widget-uri
  • user-avatar
    Intrare

    Meteo pe oră la Kaposvar

    Astăzi, 25 Martie, Luni

    Timp Temperatura Precipitaţii Vânt Presiune Umiditate
    00:00 +13°C° 0 mm 1 m/s 747 mmHg 63%
    01:00 +13°C° 0 mm 2 m/s 746 mmHg 64%
    02:00 +13°C° 0 mm 2 m/s 746 mmHg 66%
    03:00 +12°C° 0 mm 2 m/s 746 mmHg 69%
    04:00 +12°C° 0 mm 2 m/s 746 mmHg 71%
    05:00 +11°C° 0.4 mm 3 m/s 746 mmHg 73%
    06:00 +11°C° 0.4 mm 3 m/s 746 mmHg 75%
    07:00 +10°C° 0 mm 4 m/s 746 mmHg 75%
    08:00 +10°C° 1 mm 3 m/s 746 mmHg 76%
    09:00 +10°C° 1 mm 3 m/s 746 mmHg 76%
    10:00 +9°C° 1 mm 2 m/s 745 mmHg 77%
    11:00 +9°C° 1.5 mm 2 m/s 745 mmHg 79%
    12:00 +10°C° 1.5 mm 1 m/s 745 mmHg 81%
    13:00 +10°C° 1.5 mm 1 m/s 745 mmHg 83%
    14:00 +10°C° 0.8 mm 1 m/s 745 mmHg 84%
    15:00 +10°C° 0.8 mm 1 m/s 744 mmHg 85%
    16:00 +10°C° 0.8 mm 1 m/s 744 mmHg 86%
    17:00 +10°C° 0.7 mm 1 m/s 745 mmHg 81%
    18:00 +8°C° 0.7 mm 2 m/s 745 mmHg 77%
    19:00 +8°C° 0.7 mm 3 m/s 746 mmHg 73%
    20:00 +8°C° 0.2 mm 3 m/s 747 mmHg 72%
    21:00 +7°C° 0.2 mm 3 m/s 748 mmHg 71%
    22:00 +7°C° 0.2 mm 2 m/s 749 mmHg 70%
    23:00 +7°C° 0 mm 3 m/s 749 mmHg 69%

    Mâine, 26 Martie, Marţi

    Timp Temperatura Precipitaţii Vânt Presiune Umiditate
    00:00 +5°C° 0 mm 3 m/s 749 mmHg 69%
    01:00 +5°C° 0 mm 4 m/s 749 mmHg 68%
    02:00 +5°C° 0 mm 4 m/s 749 mmHg 68%
    03:00 +4°C° 0 mm 4 m/s 749 mmHg 69%
    04:00 +3°C° 0 mm 5 m/s 750 mmHg 69%
    05:00 +3°C° 0 mm 5 m/s 750 mmHg 70%
    06:00 +3°C° 0 mm 6 m/s 750 mmHg 70%
    07:00 +3°C° 0 mm 6 m/s 751 mmHg 70%
    08:00 +4°C° 0 mm 7 m/s 751 mmHg 64%
    09:00 +5°C° 0 mm 7 m/s 751 mmHg 58%
    10:00 +8°C° 0 mm 7 m/s 752 mmHg 52%
    11:00 +8°C° 0 mm 7 m/s 752 mmHg 50%
    12:00 +9°C° 0 mm 6 m/s 752 mmHg 47%
    13:00 +10°C° 0 mm 6 m/s 752 mmHg 44%
    14:00 +10°C° 0 mm 6 m/s 752 mmHg 44%
    15:00 +10°C° 0 mm 6 m/s 751 mmHg 44%
    16:00 +10°C° 0 mm 5 m/s 751 mmHg 44%
    17:00 +9°C° 0 mm 5 m/s 752 mmHg 48%
    18:00 +7°C° 0 mm 4 m/s 752 mmHg 52%
    19:00 +7°C° 0 mm 3 m/s 752 mmHg 56%
    20:00 +7°C° 0 mm 3 m/s 753 mmHg 57%
    21:00 +5°C° 0 mm 3 m/s 753 mmHg 59%
    22:00 +5°C° 0 mm 4 m/s 754 mmHg 61%
    23:00 +4°C° 0 mm 4 m/s 754 mmHg 63%

    Poimâine, 27 Martie, Miercuri

    Timp Temperatura Precipitaţii Vânt Presiune Umiditate
    00:00 +4°C° 0 mm 4 m/s 754 mmHg 65%
    01:00 +4°C° 0 mm 4 m/s 755 mmHg 67%
    02:00 +3°C° 0 mm 4 m/s 755 mmHg 68%
    03:00 +3°C° 0 mm 4 m/s 755 mmHg 69%
    04:00 +1°C° 0 mm 4 m/s 755 mmHg 70%
    05:00 +3°C° 0 mm 4 m/s 755 mmHg 70%
    06:00 +3°C° 0 mm 4 m/s 755 mmHg 69%
    07:00 +2°C° 0 mm 5 m/s 755 mmHg 69%
    08:00 +5°C° 0 mm 5 m/s 756 mmHg 62%
    09:00 +6°C° 0 mm 5 m/s 756 mmHg 56%
    10:00 +8°C° 0 mm 5 m/s 756 mmHg 49%
    11:00 +8°C° 0 mm 5 m/s 756 mmHg 47%
    12:00 +9°C° 0 mm 5 m/s 756 mmHg 45%
    13:00 +10°C° 0 mm 4 m/s 756 mmHg 43%
    14:00 +10°C° 0 mm 4 m/s 756 mmHg 43%
    15:00 +10°C° 0 mm 4 m/s 755 mmHg 43%
    16:00 +10°C° 0 mm 4 m/s 755 mmHg 43%
    17:00 +9°C° 0 mm 3 m/s 755 mmHg 47%
    18:00 +8°C° 0 mm 2 m/s 756 mmHg 51%
    19:00 +8°C° 0 mm 1 m/s 756 mmHg 55%
    20:00 +8°C° 0 mm 1 m/s 756 mmHg 57%
    21:00 +7°C° 0 mm 1 m/s 757 mmHg 59%
    22:00 +6°C° 0 mm 1 m/s 757 mmHg 62%
    23:00 +6°C° 0 mm 1 m/s 757 mmHg 65%

    28 Martie, Joi

    Timp Temperatura Precipitaţii Vânt Presiune Umiditate
    00:00 +6°C° 0 mm 1 m/s 757 mmHg 67%
    01:00 +4°C° 0 mm 2 m/s 757 mmHg 70%
    02:00 +4°C° 0 mm 2 m/s 757 mmHg 73%
    03:00 +4°C° 0 mm 2 m/s 757 mmHg 77%
    04:00 +4°C° 0 mm 2 m/s 757 mmHg 80%
    05:00 +4°C° 0 mm 2 m/s 757 mmHg 79%
    06:00 +5°C° 0 mm 2 m/s 757 mmHg 78%
    07:00 +6°C° 0 mm 2 m/s 758 mmHg 76%
    08:00 +7°C° 0 mm 2 m/s 758 mmHg 70%
    09:00 +9°C° 0 mm 3 m/s 758 mmHg 64%
    10:00 +11°C° 0 mm 3 m/s 758 mmHg 58%
    11:00 +11°C° 0.1 mm 3 m/s 758 mmHg 56%
    12:00 +13°C° 0.1 mm 2 m/s 758 mmHg 53%
    13:00 +14°C° 0.1 mm 2 m/s 757 mmHg 50%
    14:00 +14°C° 0.1 mm 2 m/s 757 mmHg 50%
    15:00 +14°C° 0.1 mm 2 m/s 757 mmHg 50%
    16:00 +14°C° 0.1 mm 2 m/s 756 mmHg 49%
    17:00 +13°C° 0.1 mm 2 m/s 756 mmHg 56%
    18:00 +12°C° 0.1 mm 2 m/s 757 mmHg 62%
    19:00 +10°C° 0.1 mm 2 m/s 757 mmHg 68%
    20:00 +9°C° 0 mm 2 m/s 757 mmHg 72%
    21:00 +9°C° 0 mm 2 m/s 758 mmHg 76%
    22:00 +8°C° 0 mm 2 m/s 758 mmHg 79%
    23:00 +8°C° 0 mm 2 m/s 758 mmHg 80%

    29 Martie, Vineri

    Timp Temperatura Precipitaţii Vânt Presiune Umiditate
    00:00 +8°C° 0 mm 2 m/s 758 mmHg 81%
    01:00 +7°C° 0 mm 2 m/s 758 mmHg 82%
    02:00 +7°C° 0 mm 2 m/s 758 mmHg 80%
    03:00 +6°C° 0 mm 2 m/s 759 mmHg 77%
    04:00 +6°C° 0 mm 2 m/s 759 mmHg 75%
    05:00 +6°C° 0 mm 2 m/s 759 mmHg 73%
    06:00 +6°C° 0 mm 2 m/s 759 mmHg 71%
    07:00 +7°C° 0 mm 2 m/s 760 mmHg 68%
    08:00 +8°C° 0 mm 2 m/s 760 mmHg 64%
    09:00 +10°C° 0 mm 3 m/s 760 mmHg 59%
    10:00 +12°C° 0 mm 3 m/s 760 mmHg 54%
    11:00 +13°C° 0 mm 3 m/s 760 mmHg 50%
    12:00 +14°C° 0 mm 3 m/s 759 mmHg 47%
    13:00 +14°C° 0 mm 3 m/s 759 mmHg 43%
    14:00 +14°C° 0 mm 3 m/s 759 mmHg 43%
    15:00 +14°C° 0 mm 3 m/s 758 mmHg 43%
    16:00 +14°C° 0 mm 3 m/s 758 mmHg 43%
    17:00 +14°C° 0 mm 2 m/s 758 mmHg 48%
    18:00 +12°C° 0 mm 2 m/s 758 mmHg 53%
    19:00 +11°C° 0 mm 1 m/s 758 mmHg 58%
    20:00 +11°C° 0 mm 1 m/s 758 mmHg 60%
    21:00 +10°C° 0 mm 1 m/s 758 mmHg 62%
    22:00 +10°C° 0 mm 1 m/s 758 mmHg 63%
    23:00 +9°C° 0 mm 1 m/s 758 mmHg 65%

    30 Martie, Sâmbătă

    Timp Temperatura Precipitaţii Vânt Presiune Umiditate
    00:00 +9°C° 0 mm 1 m/s 758 mmHg 67%
    01:00 +8°C° 0 mm 1 m/s 758 mmHg 68%
    02:00 +8°C° 0 mm 1 m/s 758 mmHg 70%
    03:00 +8°C° 0 mm 1 m/s 758 mmHg 72%
    04:00 +7°C° 0 mm 1 m/s 758 mmHg 74%
    05:00 +8°C° 0 mm 1 m/s 758 mmHg 72%
    06:00 +8°C° 0 mm 1 m/s 758 mmHg 71%
    07:00 +9°C° 0 mm 1 m/s 758 mmHg 69%
    08:00 +11°C° 0 mm 1 m/s 758 mmHg 62%
    09:00 +13°C° 0 mm 1 m/s 757 mmHg 55%
    10:00 +15°C° 0 mm 0 m/s 757 mmHg 47%
    11:00 +18°C° 0 mm 1 m/s 757 mmHg 44%
    12:00 +19°C° 0 mm 1 m/s 756 mmHg 40%
    13:00 +20°C° 0 mm 1 m/s 756 mmHg 37%
    14:00 +19°C° 0 mm 1 m/s 755 mmHg 37%
    15:00 +19°C° 0 mm 1 m/s 754 mmHg 36%
    16:00 +19°C° 0 mm 1 m/s 754 mmHg 36%
    17:00 +18°C° 0 mm 1 m/s 753 mmHg 41%
    18:00 +15°C° 0 mm 1 m/s 753 mmHg 46%
    19:00 +13°C° 0 mm 1 m/s 753 mmHg 50%
    20:00 +13°C° 0 mm 1 m/s 753 mmHg 53%
    21:00 +12°C° 0 mm 1 m/s 752 mmHg 55%
    22:00 +12°C° 0 mm 1 m/s 752 mmHg 58%
    23:00 +10°C° 0 mm 0 m/s 752 mmHg 59%
    Arată mai mult